Fort Hood, TX

7:40 AM CST on December 08, 2019 (GMT -0600)
Killeen-Fort Hood Regional

Weather History for KGRK - September, 2019

Change the Weather History Date:

Wednesday, September 18, 2019

  Actual Average Record
Temperature  
Mean Temperature 81 °F -  
Max Temperature 93 °F 86 °F 98 °F (1997)
Min Temperature 71 °F 66 °F 59 °F (2000)
Cooling Degree Days 16    
Growing Degree Days 31 (Base 50)    
Moisture  
Dew Point 69 °F    
Average Humidity 71    
Maximum Humidity 94    
Minimum Humidity 43    
Precipitation  
Precipitation 0.00 in - - ()
Sea Level Pressure  
Sea Level Pressure 29.88 in    
Wind  
Wind Speed 4 mph (NNE)    
Max Wind Speed 9 mph    
Max Gust Speed 17 mph    
Visibility 10 miles    
Events      
Averages and records for this station are not official NWS values.
T = Trace of Precipitation, MM = Missing Value Source: NWS Daily Summary

Daily Weather History Graph

Daily Weather History Graph

Search for Another Location

Airport or City:

Astronomy

Sep. 18, 2019 Rise Set
Actual Time 7:17 AM CDT 7:33 PM CDT
Civil Twilight 6:52 AM CDT 7:57 PM CDT
Nautical Twilight 6:24 AM CDT 8:25 PM CDT
Astronomical Twilight 5:56 AM CDT 8:54 PM CDT
Moon 10:24 PM CDT (9/18) 11:07 AM CDT (9/18)
Length of Visible Light 13h 04m
Length of Day
12h 16m
Waning Gibbous, 82% of the Moon is Illuminated
Sep 18
Waning Gibbous
Sep 21
Last Quarter
Sep 28
New
Oct 5
First Quarter
Oct 13
Full

Hourly Weather History & Observations

Time (CDT) Temp. Heat Index Dew Point Humidity Pressure Visibility Wind Dir Wind Speed Gust Speed Precip Events Conditions
12:58 AM 76.8 °F - 69.4 °F 78% 29.88 in 10.0 mi East 5.8 mph - N/A   Clear
1:58 AM 74.8 °F - 68.9 °F 82% 29.88 in 10.0 mi Calm Calm - N/A   Clear
3:58 AM 73.4 °F - 69.6 °F 88% 29.86 in 10.0 mi Calm Calm - N/A   Clear
4:33 AM 73.4 °F - 69.8 °F 88% 29.87 in 10.0 mi Calm Calm - N/A   Mostly Cloudy
4:53 AM 73.4 °F - 69.8 °F 88% 29.86 in 10.0 mi Calm Calm - N/A   Overcast
4:58 AM 73.4 °F - 69.6 °F 88% 29.86 in 10.0 mi Calm Calm - N/A   Overcast
5:08 AM 73.4 °F - 69.8 °F 88% 29.86 in 10.0 mi Calm Calm - N/A   Overcast
5:43 AM 73.4 °F - 69.8 °F 88% 29.87 in 10.0 mi NW 3.5 mph - N/A   Overcast
5:58 AM 73.4 °F - 70.0 °F 89% 29.88 in 10.0 mi NW 3.5 mph - N/A   Overcast
6:58 AM 72.9 °F - 69.8 °F 90% 29.90 in 10.0 mi North 3.5 mph - N/A   Overcast
7:13 AM 71.6 °F - 69.8 °F 94% 29.93 in 10.0 mi NNW 3.5 mph - N/A   Scattered Clouds
7:58 AM 72.3 °F - 69.4 °F 91% 29.90 in 10.0 mi NNW 3.5 mph - N/A   Clear
8:58 AM 76.6 °F - 70.7 °F 82% 29.90 in 10.0 mi North 4.6 mph - N/A   Partly Cloudy
9:23 AM 77.0 °F - 69.8 °F 78% 29.91 in 10.0 mi NW 5.8 mph - N/A   Mostly Cloudy
9:28 AM 77.0 °F - 69.8 °F 78% 29.90 in 10.0 mi North 5.8 mph - N/A   Scattered Clouds
9:58 AM 79.3 °F - 70.3 °F 74% 29.92 in 10.0 mi NE 6.9 mph - N/A   Mostly Cloudy
10:03 AM 78.8 °F - 69.8 °F 74% 29.92 in 10.0 mi ENE 6.9 mph - N/A   Scattered Clouds
10:08 AM 78.8 °F - 69.8 °F 74% 29.92 in 10.0 mi NE 4.6 mph - N/A   Mostly Cloudy
10:43 AM 78.8 °F - 69.8 °F 74% 29.93 in 10.0 mi Calm Calm - N/A   Mostly Cloudy
10:58 AM 81.1 °F 84.7 °F 70.2 °F 69% 29.93 in 10.0 mi ENE 5.8 mph - N/A   Overcast
11:49 AM 84.2 °F 88.4 °F 69.8 °F 62% 29.92 in 10.0 mi North 4.6 mph - N/A   Scattered Clouds
11:58 AM 84.7 °F 88.8 °F 69.6 °F 60% 29.92 in 10.0 mi North 6.9 mph - N/A   Scattered Clouds
12:03 PM 84.2 °F 88.4 °F 69.8 °F 62% 29.92 in 10.0 mi North 6.9 mph - N/A   Mostly Cloudy
12:08 PM 84.2 °F 88.4 °F 69.8 °F 62% 29.91 in 10.0 mi North 9.2 mph - N/A   Scattered Clouds
12:58 PM 86.0 °F 89.7 °F 68.9 °F 56% 29.90 in 10.0 mi North 4.6 mph - N/A   Clear
1:23 PM 87.8 °F 91.4 °F 68.0 °F 52% 29.89 in 10.0 mi NW 8.1 mph - N/A   Scattered Clouds
1:58 PM 87.6 °F 90.8 °F 67.6 °F 51% 29.87 in 10.0 mi NE 6.9 mph - N/A   Partly Cloudy
2:58 PM 88.7 °F 92.2 °F 67.6 °F 50% 29.84 in 10.0 mi North 5.8 mph - N/A   Mostly Cloudy
3:58 PM 91.6 °F 94.8 °F 66.6 °F 44% 29.83 in 10.0 mi North 4.6 mph - N/A   Scattered Clouds
4:58 PM 91.2 °F 93.7 °F 65.7 °F 43% 29.81 in 10.0 mi Calm Calm - N/A   Partly Cloudy
5:58 PM 91.9 °F 95.0 °F 66.6 °F 43% 29.81 in 10.0 mi NNE 5.8 mph - N/A   Clear
6:58 PM 89.4 °F 92.3 °F 66.6 °F 47% 29.82 in 10.0 mi NE 9.2 mph 17.3 mph N/A   Clear
8:58 PM 84.2 °F 87.3 °F 68.2 °F 58% 29.88 in 10.0 mi ENE 5.8 mph - N/A   Clear
9:58 PM 82.2 °F 85.5 °F 68.9 °F 64% 29.89 in 10.0 mi East 5.8 mph - N/A   Clear
10:58 PM 79.0 °F - 68.7 °F 71% 29.90 in 10.0 mi Calm Calm - N/A   Clear
11:58 PM 79.2 °F - 68.5 °F 70% 29.86 in 10.0 mi Calm Calm - N/A   Clear